This is the latest recevied weather packets stored in our database for station/object KE8RXN. If no packets are shown the sender has not sent any weather packets the latest 1 day(s).
| Time | Temp. | Humidity | Pressure | Rain* | Wind** | Luminosity | Snow |
|---|---|---|---|---|---|---|---|
| 1778062170 | 2.22° C | 84% | 1014.7 hPa | 0 mm | - | 0 W/m² | - |
| 1778061868 | 2.22° C | 84% | 1014.7 hPa | 0 mm | - | 0 W/m² | - |
| 1778061566 | 2.22° C | 84% | 1014.5 hPa | 0 mm | - | 0 W/m² | - |
| 1778061264 | 2.78° C | 83% | 1014.6 hPa | 0 mm | - | 0 W/m² | - |
| 1778060960 | 2.78° C | 84% | 1014.5 hPa | 0 mm | - | 0 W/m² | - |
| 1778060659 | 2.78° C | 84% | 1014.4 hPa | 0 mm | - | 0 W/m² | - |
| 1778060356 | 2.78° C | 84% | 1014.5 hPa | 0 mm | - | 0 W/m² | - |
| 1778060054 | 2.78° C | 84% | 1014.4 hPa | 0 mm | - | 0 W/m² | - |
| 1778058238 | 3.33° C | 82% | 1014 hPa | 0 mm | - | 0 W/m² | - |
| 1778057631 | 2.78° C | 83% | 1013.9 hPa | 0 mm | - | 0 W/m² | - |
| 1778056721 | 3.33° C | 82% | 1013.7 hPa | 0 mm | - | 0 W/m² | - |
| 1778055812 | 3.33° C | 82% | 1013.9 hPa | 0 mm | - | 0 W/m² | - |
| 1778055508 | 3.33° C | 82% | 1013.7 hPa | 0 mm | - | 0 W/m² | - |
| 1778054904 | 3.33° C | 83% | 1013.7 hPa | 0 mm | - | 0 W/m² | - |
| 1778054600 | 3.89° C | 82% | 1014 hPa | 0 mm | - | 0 W/m² | - |
| 1778054298 | 3.89° C | 83% | 1013.8 hPa | 0 mm | - | 0 W/m² | - |
| 1778053389 | 3.33° C | 83% | 1014 hPa | 0 mm | - | 0 W/m² | - |
| 1778053087 | 3.89° C | 83% | 1013.8 hPa | 0 mm | - | 0 W/m² | - |
| 1778052481 | 3.89° C | 82% | 1014 hPa | 0 mm | - | 0 W/m² | - |
| 1778051876 | 3.89° C | 81% | 1013.9 hPa | 0 mm | - | 0 W/m² | - |
| 1778051574 | 3.89° C | 81% | 1013.9 hPa | 0 mm | - | 0 W/m² | - |
| 1778051271 | 3.89° C | 81% | 1014.2 hPa | 0 mm | - | 0 W/m² | - |
| 1778050968 | 4.44° C | 81% | 1013.7 hPa | 0 mm | - | 0 W/m² | - |
| 1778048848 | 5° C | 77% | 1014.1 hPa | 0 mm | - | 0 W/m² | - |
| 1778047938 | 5° C | 76% | 1014.2 hPa | 0 mm | - | 0 W/m² | - |
* Rain latest hour (hover to see other rain measurements)
** Current wind speed in m/s (hover to see current wind gust speed)